Location: Sungai Dangang
(2.7500°N, 113.8333°E)
Time: 04:28:01
(UTC+00:00)

COSMOS 2428 - Pass Details

Date: 16 May 2021
Orbit: 844 x 859 km, 70.9° (Epoch: 19 June)

Event Time Altitude Azimuth Distance (km) Brightness Sun altitude
Exits shadow 21:18:31 18° 268° (W) 1,989 4.1 -13.8°
Maximum altitude 21:19:51 19° 287° (WNW) 1,914 4.1 -13.5°
Drops below altitude 10° 21:23:45 10° 330° (NNW) 2,469 5.0 -12.6°
Sets 21:26:56 0° 348° (NNW) 3,406 6.0 -11.8°
